sat.trackr.live / text

‹ back to catalog

STARLINK-34196

NORAD 65324 · 2025-189B

PAYLOAD ACTIVE UNKNOWN

§ Identity

Operator
Country
US
Launch date
2025-08-27
Launch site
AFETR
Launch vehicle
Mass (kg)
RCS (m²)

Purposes: comms

External: N2YO · Heavens-Above · Gunter

§ Orbital elements

Epoch: 2026-05-25T04:13:33.303360Z

Period
94.01 min
Inclination
53.1598°
Eccentricity
0.0001196
Mean motion
15.31719270 rev/d
Perigee alt
469.9 km
Apogee alt
471.5 km
Semi-major
6,848.8 km
B*
6.4272e-4
RAAN
211.0159°
Arg perigee
80.4220°
Mean anomaly
279.6916°
Rev number
4,277

§ Raw data

STARLINK-341961 65324U 25189B   26145.17607990  .00019644  00000+0  64272-3 0  99992 65324  53.1598 211.0159 0001196  80.4220 279.6916 15.31719270 42771

JSON: /api/v1/satellites/65324 · /tle

For live sub-satellite position, see the globe view (requires WebGL).

§ Visibility from observer

Set your observer location to see the next 7 days of passes ≥ 10°. The values pass through the URL so the page stays shareable.

No JS? Fill the form by hand. The geolocation button needs JavaScript.